Simultaneous Nadir Overpasses (SNOs) Predictions

Prediction of SNOs between NOAA-20 and METOP-B Satellite Orbit:

Table of predicted SNOs for the next 14.0 days since TLE Epoch: 10/28/2022
Index Date (NOAA-20) Time (NOAA-20) Lat,Lon (NOAA-20) SZA (NOAA-20 ) Date (METOP-B) Time (METOP-B) Lat,Lon (METOP-B) SZA (METOP-B ) Distance(km) Time Diff (sec)
1 10/30/2022 18:42:57 73.46,-110.49 87.41 10/30/2022 18:44:03 73.44,-107.64 87.32 90.31 66
2 10/30/2022 19:33:40 -73.41, 56.95 92.64 10/30/2022 19:34:47 -73.35, 59.47 92.76 80.58 67
3 10/30/2022 20:24:21 73.17,-135.21 87.12 10/30/2022 20:25:31 73.12,-133.69 87.03 49.07 70
4 10/30/2022 21:15:04 -73.12, 32.23 92.93 10/30/2022 21:16:15 -73.03, 33.43 93.05 40.19 71
5 10/30/2022 22:05:45 72.87,-159.94 86.83 10/30/2022 22:06:58 72.85,-159.62 86.79 11.09 73
6 10/30/2022 22:56:28 -72.82, 7.49 93.22 10/30/2022 22:57:41 -72.80, 7.62 93.24 4.80 73
7 10/30/2022 23:47:13 72.78, 174.88 86.76 10/30/2022 23:48:21 72.78, 174.90 86.75 0.53 68
8 10/31/2022 00:37:57 -72.78, -17.80 93.24 10/31/2022 00:39:03 -72.78, -17.76 93.24 1.50 66
9 10/31/2022 01:28:43 72.78, 149.50 86.78 10/31/2022 01:29:43 72.76, 149.51 86.75 3.32 60
10 10/31/2022 02:19:27 -72.78, -43.18 93.21 10/31/2022 02:20:25 -72.76, -43.14 93.23 2.41 58
11 10/31/2022 03:10:12 72.74, 124.21 86.76 10/31/2022 03:11:05 72.74, 124.13 86.75 2.73 53
12 10/31/2022 04:00:56 -72.74, -68.47 93.23 10/31/2022 04:01:47 -72.74, -68.52 93.23 2.03 51
13 10/31/2022 04:51:42 72.75, 98.83 86.79 10/31/2022 04:52:26 72.77, 98.86 86.81 2.38 44
14 10/31/2022 05:42:26 -72.74, -93.85 93.21 10/31/2022 05:43:09 -72.72, -93.90 93.23 2.76 43
15 10/31/2022 06:33:12 72.75, 73.44 86.82 10/31/2022 06:33:48 72.75, 73.47 86.81 1.42 36
16 10/31/2022 07:23:56 -72.75,-119.24 93.18 10/31/2022 07:24:30 -72.76,-119.18 93.18 2.03 34
17 10/31/2022 08:14:41 72.71, 48.16 86.80 10/31/2022 08:15:10 72.73, 48.09 86.81 2.84 29
18 10/31/2022 09:05:26 -72.76,-144.63 93.15 10/31/2022 09:05:52 -72.74,-144.56 93.17 3.19 26
19 10/31/2022 09:56:11 72.71, 22.77 86.83 10/31/2022 09:56:32 72.71, 22.71 86.82 2.15 21
20 10/31/2022 10:46:55 -72.71,-169.91 93.17 10/31/2022 10:47:14 -72.72,-169.94 93.17 1.17 19
21 10/31/2022 11:37:41 72.72, -2.62 86.86 10/31/2022 11:37:53 72.74, -2.56 86.87 2.45 12
22 10/31/2022 12:28:25 -72.72, 164.70 93.14 10/31/2022 12:28:36 -72.70, 164.68 93.17 2.73 11
23 10/31/2022 13:19:11 72.73, -28.01 86.88 10/31/2022 13:19:15 72.72, -27.95 86.87 2.32 4
24 10/31/2022 14:09:55 -72.72, 139.32 93.11 10/31/2022 14:09:57 -72.73, 139.40 93.11 2.73 2
25 10/31/2022 15:00:40 72.68, -53.29 86.86 10/31/2022 15:00:37 72.70, -53.33 86.87 1.96 3
26 10/31/2022 15:51:24 -72.68, 114.03 93.14 10/31/2022 15:51:19 -72.71, 114.02 93.11 2.90 5
27 10/31/2022 16:42:10 72.69, -78.68 86.89 10/31/2022 16:41:59 72.68, -78.71 86.88 1.86 11
28 10/31/2022 17:32:54 -72.69, 88.65 93.11 10/31/2022 17:32:41 -72.69, 88.64 93.11 0.33 13
29 10/31/2022 18:23:40 72.70,-104.06 86.92 10/31/2022 18:23:20 72.71,-103.99 86.93 2.83 20
30 10/31/2022 19:14:24 -72.69, 63.26 93.08 10/31/2022 19:14:03 -72.67, 63.26 93.10 2.99 21
31 10/31/2022 20:05:10 72.70,-129.45 86.95 10/31/2022 20:04:42 72.69,-129.37 86.93 3.25 28
32 10/31/2022 20:55:53 -72.65, 37.98 93.10 10/31/2022 20:55:25 -72.65, 37.87 93.10 3.38 28
33 10/31/2022 21:46:39 72.66,-154.73 86.92 10/31/2022 21:46:04 72.67,-154.75 86.94 1.09 35
34 10/31/2022 22:37:23 -72.65, 12.59 93.07 10/31/2022 22:36:46 -72.68, 12.60 93.05 2.45 37
35 10/31/2022 23:28:09 72.66, 179.88 86.95 10/31/2022 23:27:26 72.65, 179.87 86.94 2.01 43
36 11/01/2022 00:18:53 -72.66, -12.80 93.04 11/01/2022 00:18:08 -72.66, -12.78 93.04 0.68 45
37 11/01/2022 01:09:39 72.67, 154.49 86.98 11/01/2022 01:08:47 72.68, 154.59 86.99 3.43 52
38 11/01/2022 02:00:23 -72.67, -38.19 93.01 11/01/2022 01:59:30 -72.64, -38.16 93.04 3.48 53
39 11/01/2022 02:51:08 72.63, 129.21 86.96 11/01/2022 02:50:09 72.66, 129.21 86.99 3.42 59
40 11/01/2022 03:41:52 -72.62, -63.47 93.04 11/01/2022 03:40:52 -72.62, -63.55 93.04 2.65 60
41 11/01/2022 04:32:38 72.63, 103.82 86.99 11/01/2022 04:31:31 72.64, 103.83 87.00 0.56 67
42 11/01/2022 05:23:22 -72.63, -88.86 93.01 11/01/2022 05:22:13 -72.65, -88.82 92.99 2.28 69
43 11/01/2022 06:14:08 72.64, 78.43 87.02 11/01/2022 06:12:53 72.62, 78.45 87.00 2.55 75
44 11/01/2022 07:04:51 -72.58,-114.14 93.03 11/01/2022 07:03:36 -72.58,-114.31 93.03 5.65 75
45 11/01/2022 07:55:32 72.34, 53.66 86.73 11/01/2022 07:54:20 72.34, 52.56 86.76 37.26 72
46 11/01/2022 08:46:15 -72.29,-138.92 93.32 11/01/2022 08:45:04 -72.25,-140.29 93.32 46.79 71
47 11/01/2022 09:36:55 72.04, 28.87 86.44 11/01/2022 09:35:47 72.01, 26.58 86.47 78.54 68
48 11/01/2022 10:27:38 -71.98,-163.71 93.61 11/01/2022 10:26:30 -71.97,-166.16 93.56 84.25 68



Historial Predications of SNOs between NOAA-20 and METOP-B
